BHS212 MUHA-MYNN

Flight info

Callsign BHS212
Flight time 0h 54m
Altitude 28000
Route ALMIT2 TANIA R628 SANNS
Aircraft B737/M-SDE2E3FGHIRWXY/LB1

Departure

Time 2026-05-07 23:57
Airport José Martí International Airport (MUHA)

Arrival

Time 2026-05-08 00:51
Airport Lynden Pindling International Airport (MYNN)
Time Latitude Longitude Altitude Speed Heading
2026-05-07 23:34 23.00167 -82.39708 229 ft 0 kts 55°
2026-05-07 23:44 23.00161 -82.39718 229 ft 2 kts 55°
2026-05-07 23:45 23.00153 -82.39731 229 ft 2 kts 55°
2026-05-07 23:45 23.00144 -82.39745 229 ft 2 kts 55°
2026-05-07 23:45 23.00137 -82.39759 229 ft 2 kts 81°
2026-05-07 23:45 23.00137 -82.39775 229 ft 2 kts 106°
2026-05-07 23:46 23.00144 -82.39790 229 ft 2 kts 133°
2026-05-07 23:46 23.00149 -82.39795 229 ft 1 kts 148°
2026-05-07 23:46 23.00153 -82.39798 229 ft 0 kts 144°
2026-05-07 23:48 23.00137 -82.39785 229 ft 7 kts 143°
2026-05-07 23:48 23.00078 -82.39736 229 ft 11 kts 142°
2026-05-07 23:49 23.00014 -82.39687 229 ft 10 kts 143°
2026-05-07 23:49 22.99969 -82.39658 229 ft 7 kts 186°
2026-05-07 23:49 22.99906 -82.39733 226 ft 19 kts 235°
2026-05-07 23:49 22.99823 -82.39856 222 ft 19 kts 235°
2026-05-07 23:50 22.99743 -82.39976 218 ft 20 kts 233°
2026-05-07 23:50 22.99659 -82.40105 216 ft 20 kts 234°
2026-05-07 23:50 22.99574 -82.40231 215 ft 21 kts 235°
2026-05-07 23:50 22.99489 -82.40359 213 ft 21 kts 234°
2026-05-07 23:51 22.99401 -82.40493 211 ft 22 kts 234°
2026-05-07 23:51 22.99310 -82.40631 212 ft 22 kts 234°
2026-05-07 23:51 22.99219 -82.40765 211 ft 21 kts 235°
2026-05-07 23:51 22.99132 -82.40898 211 ft 20 kts 234°
2026-05-07 23:52 22.99048 -82.41026 211 ft 21 kts 235°
2026-05-07 23:52 22.98955 -82.41164 213 ft 22 kts 234°
2026-05-07 23:52 22.98871 -82.41293 215 ft 19 kts 236°
2026-05-07 23:52 22.98793 -82.41410 215 ft 19 kts 234°
2026-05-07 23:53 22.98716 -82.41524 216 ft 18 kts 235°
2026-05-07 23:53 22.98632 -82.41652 216 ft 22 kts 234°
2026-05-07 23:53 22.98538 -82.41793 219 ft 23 kts 234°
2026-05-07 23:53 22.98445 -82.41933 219 ft 22 kts 234°
2026-05-07 23:54 22.98360 -82.42060 222 ft 20 kts 234°
2026-05-07 23:54 22.98268 -82.42200 222 ft 23 kts 234°
2026-05-07 23:54 22.98174 -82.42342 222 ft 22 kts 234°
2026-05-07 23:54 22.98084 -82.42478 220 ft 20 kts 234°
2026-05-07 23:55 22.98014 -82.42567 218 ft 13 kts 205°
2026-05-07 23:55 22.97938 -82.42534 218 ft 12 kts 146°
2026-05-07 23:55 22.97886 -82.42471 218 ft 11 kts 86°
2026-05-07 23:55 22.97915 -82.42417 218 ft 0 kts 53°
2026-05-07 23:56 22.97930 -82.42396 219 ft 15 kts 53°
2026-05-07 23:56 22.98181 -82.42020 222 ft 105 kts 54°
2026-05-07 23:57 22.98755 -82.41148 262 ft 173 kts 54°
2026-05-07 23:57 22.99490 -82.40046 1063 ft 186 kts 54°
2026-05-07 23:57 23.00275 -82.38931 1930 ft 196 kts 54°
2026-05-07 23:57 23.01108 -82.37734 2837 ft 199 kts 55°
2026-05-07 23:58 23.01912 -82.36510 3579 ft 211 kts 57°
2026-05-07 23:58 23.02789 -82.35145 4269 ft 230 kts 56°
2026-05-07 23:58 23.03723 -82.33706 5034 ft 246 kts 56°
2026-05-07 23:58 23.04745 -82.32153 5826 ft 261 kts 55°
2026-05-07 23:59 23.05829 -82.30516 6645 ft 275 kts 55°
2026-05-07 23:59 23.06934 -82.28854 7658 ft 278 kts 54°
2026-05-07 23:59 23.08070 -82.27142 8669 ft 282 kts 54°
2026-05-07 23:59 23.09205 -82.25430 9612 ft 285 kts 54°
2026-05-08 00:00 23.10372 -82.23666 10486 ft 292 kts 54°
2026-05-08 00:00 23.11576 -82.21844 11069 ft 308 kts 54°
2026-05-08 00:00 23.12846 -82.19923 11620 ft 324 kts 54°
2026-05-08 00:00 23.14174 -82.17872 12178 ft 338 kts 58°
2026-05-08 00:01 23.15271 -82.15601 12974 ft 343 kts 66°
2026-05-08 00:01 23.16160 -82.13189 13783 ft 347 kts 70°
2026-05-08 00:01 23.16968 -82.10740 14562 ft 352 kts 70°
2026-05-08 00:01 23.17784 -82.08225 15322 ft 357 kts 70°
2026-05-08 00:02 23.18621 -82.05678 16066 ft 362 kts 70°
2026-05-08 00:02 23.19480 -82.03114 16826 ft 366 kts 69°
2026-05-08 00:02 23.20368 -82.00500 17547 ft 370 kts 69°
2026-05-08 00:02 23.21272 -81.97858 18186 ft 377 kts 69°
2026-05-08 00:03 23.22192 -81.95183 18811 ft 383 kts 68°
2026-05-08 00:03 23.23120 -81.92486 19409 ft 389 kts 68°
2026-05-08 00:03 23.24074 -81.89719 19994 ft 396 kts 68°
2026-05-08 00:03 23.25040 -81.86910 20643 ft 400 kts 68°
2026-05-08 00:04 23.26026 -81.84041 21231 ft 406 kts 68°
2026-05-08 00:04 23.27015 -81.81160 21771 ft 412 kts 68°
2026-05-08 00:04 23.28017 -81.78235 22320 ft 418 kts 68°
2026-05-08 00:04 23.29033 -81.75272 22910 ft 422 kts 68°
2026-05-08 00:05 23.30049 -81.72302 23668 ft 421 kts 68°
2026-05-08 00:05 23.31068 -81.69315 24527 ft 417 kts 68°
2026-05-08 00:05 23.32062 -81.66398 25267 ft 415 kts 68°
2026-05-08 00:05 23.33053 -81.63490 25985 ft 413 kts 67°
2026-05-08 00:06 23.34047 -81.60573 26642 ft 413 kts 67°
2026-05-08 00:06 23.35044 -81.57642 27350 ft 411 kts 67°
2026-05-08 00:06 23.36025 -81.54761 27876 ft 412 kts 67°
2026-05-08 00:06 23.37029 -81.51811 27995 ft 414 kts 67°
2026-05-08 00:07 23.39072 -81.45816 28011 ft 436 kts 66°
2026-05-08 00:07 23.41176 -81.39621 28008 ft 438 kts 67°
2026-05-08 00:08 23.43272 -81.33425 28008 ft 437 kts 67°
2026-05-08 00:08 23.45365 -81.27231 28008 ft 437 kts 67°
2026-05-08 00:09 23.47467 -81.20997 28008 ft 437 kts 67°
2026-05-08 00:09 23.49551 -81.14813 28008 ft 436 kts 67°
2026-05-08 00:10 23.51634 -81.08624 28008 ft 436 kts 67°
2026-05-08 00:10 23.53713 -81.02438 28008 ft 436 kts 67°
2026-05-08 00:11 23.55784 -80.96261 28009 ft 435 kts 67°
2026-05-08 00:11 23.57863 -80.90055 28009 ft 435 kts 67°
2026-05-08 00:12 23.59923 -80.83898 28009 ft 434 kts 67°
2026-05-08 00:12 23.61992 -80.77708 28009 ft 435 kts 67°
2026-05-08 00:13 23.64048 -80.71546 28009 ft 434 kts 67°
2026-05-08 00:13 23.66104 -80.65372 28010 ft 435 kts 67°
2026-05-08 00:14 23.68158 -80.59195 28008 ft 435 kts 67°
2026-05-08 00:14 23.70214 -80.53011 28008 ft 435 kts 67°
2026-05-08 00:15 23.72272 -80.46804 28006 ft 435 kts 67°
2026-05-08 00:15 23.74320 -80.40612 28007 ft 434 kts 67°
2026-05-08 00:16 23.76358 -80.34444 28006 ft 434 kts 67°
2026-05-08 00:16 23.78411 -80.28226 28006 ft 434 kts 67°
2026-05-08 00:17 23.80440 -80.22066 28005 ft 435 kts 68°
2026-05-08 00:17 23.82486 -80.15845 28007 ft 435 kts 67°
2026-05-08 00:18 23.84522 -80.09647 28005 ft 434 kts 67°
2026-05-08 00:18 23.86550 -80.03472 28007 ft 434 kts 67°
2026-05-08 00:19 23.88576 -79.97288 28005 ft 435 kts 68°
2026-05-08 00:19 23.90614 -79.91060 28008 ft 434 kts 67°
2026-05-08 00:20 23.92640 -79.84861 28007 ft 434 kts 67°
2026-05-08 00:20 23.94652 -79.78684 28008 ft 434 kts 68°
2026-05-08 00:21 23.96681 -79.72450 28010 ft 434 kts 68°
2026-05-08 00:21 23.98689 -79.66270 28009 ft 434 kts 68°
2026-05-08 00:22 24.00708 -79.60050 28008 ft 435 kts 68°
2026-05-08 00:22 24.02749 -79.53865 28007 ft 434 kts 65°
2026-05-08 00:23 24.05308 -79.47943 28008 ft 432 kts 59°
2026-05-08 00:23 24.08211 -79.42203 28008 ft 431 kts 57°
2026-05-08 00:24 24.11164 -79.36462 28008 ft 432 kts 58°
2026-05-08 00:24 24.14070 -79.30744 28008 ft 431 kts 58°
2026-05-08 00:25 24.16954 -79.25008 28008 ft 431 kts 58°
2026-05-08 00:25 24.19838 -79.19236 28008 ft 432 kts 58°
2026-05-08 00:26 24.22712 -79.13463 28008 ft 431 kts 58°
2026-05-08 00:26 24.25563 -79.07729 28008 ft 432 kts 58°
2026-05-08 00:27 24.28453 -79.01917 28008 ft 433 kts 59°
2026-05-08 00:27 24.29881 -78.99040 27934 ft 433 kts 59°
2026-05-08 00:27 24.31308 -78.96159 27538 ft 427 kts 58°
2026-05-08 00:28 24.32707 -78.93332 27086 ft 421 kts 59°
2026-05-08 00:28 24.34085 -78.90545 26638 ft 416 kts 59°
2026-05-08 00:28 24.35466 -78.87751 26184 ft 411 kts 58°
2026-05-08 00:28 24.36803 -78.85046 25737 ft 406 kts 59°
2026-05-08 00:29 24.38145 -78.82330 25287 ft 401 kts 59°
2026-05-08 00:29 24.39454 -78.79681 24841 ft 396 kts 59°
2026-05-08 00:29 24.40767 -78.77023 24393 ft 392 kts 59°
2026-05-08 00:29 24.42048 -78.74428 23950 ft 388 kts 59°
2026-05-08 00:30 24.43317 -78.71856 23508 ft 384 kts 59°
2026-05-08 00:30 24.44581 -78.69292 23066 ft 381 kts 59°
2026-05-08 00:30 24.45841 -78.66736 22621 ft 377 kts 59°
2026-05-08 00:30 24.47068 -78.64246 22195 ft 374 kts 59°
2026-05-08 00:31 24.48304 -78.61734 21765 ft 370 kts 59°
2026-05-08 00:31 24.49509 -78.59283 21337 ft 367 kts 59°
2026-05-08 00:31 24.50721 -78.56817 20905 ft 364 kts 59°
2026-05-08 00:31 24.51911 -78.54393 20478 ft 360 kts 59°
2026-05-08 00:32 24.53088 -78.51997 20055 ft 357 kts 58°
2026-05-08 00:32 24.54263 -78.49603 19628 ft 354 kts 58°
2026-05-08 00:32 24.55421 -78.47245 19201 ft 351 kts 59°
2026-05-08 00:32 24.56580 -78.44883 18771 ft 348 kts 58°
2026-05-08 00:33 24.57717 -78.42560 18345 ft 345 kts 59°
2026-05-08 00:33 24.58837 -78.40270 17922 ft 342 kts 59°
2026-05-08 00:33 24.59958 -78.37975 17493 ft 339 kts 58°
2026-05-08 00:33 24.61054 -78.35735 17071 ft 336 kts 59°
2026-05-08 00:34 24.62160 -78.33471 16634 ft 333 kts 59°
2026-05-08 00:34 24.63252 -78.31235 16202 ft 330 kts 59°
2026-05-08 00:34 24.64320 -78.29048 15776 ft 328 kts 59°
2026-05-08 00:34 24.65396 -78.26848 15346 ft 326 kts 60°
2026-05-08 00:35 24.66469 -78.24651 14918 ft 323 kts 60°
2026-05-08 00:35 24.67523 -78.22495 14490 ft 321 kts 60°
2026-05-08 00:35 24.68573 -78.20343 14067 ft 320 kts 60°
2026-05-08 00:35 24.69620 -78.18198 13638 ft 318 kts 60°
2026-05-08 00:36 24.70658 -78.16067 13212 ft 316 kts 60°
2026-05-08 00:36 24.71694 -78.13940 12785 ft 314 kts 60°
2026-05-08 00:36 24.72714 -78.11846 12364 ft 312 kts 60°
2026-05-08 00:36 24.73726 -78.09766 11940 ft 309 kts 60°
2026-05-08 00:37 24.74696 -78.07689 11517 ft 303 kts 62°
2026-05-08 00:37 24.75617 -78.05617 11095 ft 302 kts 63°
2026-05-08 00:37 24.76524 -78.03548 10669 ft 296 kts 63°
2026-05-08 00:38 24.78278 -77.99560 9824 ft 287 kts 63°
2026-05-08 00:38 24.79156 -77.97582 9393 ft 283 kts 63°
2026-05-08 00:38 24.80080 -77.95715 8974 ft 279 kts 55°
2026-05-08 00:38 24.81379 -77.94157 8547 ft 274 kts 38°
2026-05-08 00:39 24.82905 -77.92920 8121 ft 271 kts 34°
2026-05-08 00:39 24.84446 -77.91756 7696 ft 268 kts 34°
2026-05-08 00:39 24.85957 -77.90574 7271 ft 266 kts 35°
2026-05-08 00:39 24.87445 -77.89365 6851 ft 268 kts 36°
2026-05-08 00:40 24.88927 -77.88135 6486 ft 268 kts 37°
2026-05-08 00:40 24.90413 -77.86893 6126 ft 267 kts 37°
2026-05-08 00:40 24.91896 -77.85653 5768 ft 267 kts 37°
2026-05-08 00:40 24.93363 -77.84428 5410 ft 266 kts 37°
2026-05-08 00:41 24.94850 -77.83187 5058 ft 265 kts 37°
2026-05-08 00:41 24.96293 -77.81984 4815 ft 259 kts 37°
2026-05-08 00:41 24.97724 -77.80792 4574 ft 254 kts 37°
2026-05-08 00:41 24.99109 -77.79636 4337 ft 249 kts 37°
2026-05-08 00:42 25.00488 -77.78484 4094 ft 245 kts 37°
2026-05-08 00:42 25.01841 -77.77354 3853 ft 241 kts 37°
2026-05-08 00:42 25.03173 -77.76243 3631 ft 237 kts 37°
2026-05-08 00:42 25.04476 -77.75156 3439 ft 232 kts 37°
2026-05-08 00:43 25.05729 -77.74107 3327 ft 224 kts 37°
2026-05-08 00:43 25.06954 -77.73080 3230 ft 215 kts 37°
2026-05-08 00:43 25.08120 -77.72102 3137 ft 205 kts 37°
2026-05-08 00:43 25.09248 -77.71161 3048 ft 200 kts 37°
2026-05-08 00:44 25.10349 -77.70245 2953 ft 199 kts 37°
2026-05-08 00:44 25.11424 -77.69349 2853 ft 189 kts 37°
2026-05-08 00:44 25.12442 -77.68498 2759 ft 179 kts 37°
2026-05-08 00:44 25.13432 -77.67670 2666 ft 176 kts 37°
2026-05-08 00:45 25.14409 -77.66848 2571 ft 176 kts 38°
2026-05-08 00:45 25.15381 -77.66027 2475 ft 175 kts 38°
2026-05-08 00:45 25.16358 -77.65206 2378 ft 175 kts 38°
2026-05-08 00:45 25.17268 -77.64346 2282 ft 174 kts 50°
2026-05-08 00:46 25.17749 -77.63126 2184 ft 175 kts 84°
2026-05-08 00:46 25.17549 -77.61830 2091 ft 175 kts 115°
2026-05-08 00:46 25.16863 -77.60714 2001 ft 176 kts 127°
2026-05-08 00:46 25.16081 -77.59694 1976 ft 175 kts 130°
2026-05-08 00:47 25.15244 -77.58709 1968 ft 172 kts 132°
2026-05-08 00:47 25.14422 -77.57782 1974 ft 166 kts 133°
2026-05-08 00:47 25.13612 -77.56876 1972 ft 165 kts 133°
2026-05-08 00:47 25.12833 -77.56012 1966 ft 150 kts 133°
2026-05-08 00:48 25.12112 -77.55212 1878 ft 141 kts 133°
2026-05-08 00:48 25.11444 -77.54472 1708 ft 135 kts 133°
2026-05-08 00:48 25.10784 -77.53741 1535 ft 134 kts 133°
2026-05-08 00:48 25.10118 -77.53002 1357 ft 134 kts 133°
2026-05-08 00:49 25.09475 -77.52292 1188 ft 135 kts 133°
2026-05-08 00:49 25.08821 -77.51568 1017 ft 134 kts 133°
2026-05-08 00:49 25.08151 -77.50827 843 ft 137 kts 133°
2026-05-08 00:49 25.07474 -77.50082 690 ft 137 kts 134°
2026-05-08 00:50 25.06787 -77.49338 509 ft 138 kts 133°
2026-05-08 00:50 25.06106 -77.48591 337 ft 136 kts 133°
2026-05-08 00:50 25.05440 -77.47846 149 ft 136 kts 134°
2026-05-08 00:50 25.04790 -77.47125 24 ft 122 kts 133°
2026-05-08 00:51 25.04342 -77.46626 23 ft 63 kts 135°
2026-05-08 00:51 25.04152 -77.46407 23 ft 23 kts 125°
2026-05-08 00:51 25.04116 -77.46257 23 ft 15 kts 109°
2026-05-08 00:51 25.04084 -77.46157 23 ft 12 kts 107°
2026-05-08 00:52 25.04104 -77.46117 23 ft 8 kts 355°
2026-05-08 00:52 25.04150 -77.46160 23 ft 8 kts 315°
2026-05-08 00:52 25.04191 -77.46206 23 ft 8 kts 314°
2026-05-08 00:52 25.04231 -77.46250 23 ft 7 kts 315°
2026-05-08 00:53 25.04269 -77.46291 23 ft 7 kts 314°
2026-05-08 00:53 25.04304 -77.46332 23 ft 7 kts 315°
2026-05-08 00:53 25.04339 -77.46369 23 ft 6 kts 314°
2026-05-08 00:53 25.04380 -77.46416 23 ft 11 kts 314°
2026-05-08 00:54 25.04447 -77.46489 23 ft 13 kts 314°
2026-05-08 00:54 25.04505 -77.46554 23 ft 11 kts 314°
2026-05-08 00:54 25.04560 -77.46615 23 ft 10 kts 314°
2026-05-08 00:54 25.04607 -77.46667 23 ft 7 kts 315°
2026-05-08 00:55 25.04641 -77.46704 23 ft 6 kts 312°
2026-05-08 00:55 25.04672 -77.46741 23 ft 6 kts 315°
2026-05-08 00:55 25.04710 -77.46783 23 ft 9 kts 314°
2026-05-08 00:55 25.04765 -77.46844 23 ft 12 kts 314°
2026-05-08 00:56 25.04830 -77.46915 23 ft 12 kts 315°
2026-05-08 00:56 25.04884 -77.46956 23 ft 8 kts
2026-05-08 00:56 25.04925 -77.46914 23 ft 8 kts 71°
2026-05-08 00:56 25.04946 -77.46858 23 ft 7 kts 67°
2026-05-08 00:57 25.04955 -77.46821 23 ft 3 kts 99°
2026-05-08 00:57 25.04940 -77.46803 23 ft 3 kts 143°
2026-05-08 00:57 25.04916 -77.46785 23 ft 3 kts 145°
2026-05-08 00:57 25.04901 -77.46774 23 ft 1 kts 146°
2026-05-08 00:58 25.04897 -77.46772 23 ft 0 kts 146°